{"data":{"norad_id":69085,"epoch":"2026-05-24T18:13:28.633152Z","epoch_age_seconds":86011,"freshness":"FRESH","line1":"1 69085U 26104N   26144.75935918 -.01891271  00000+0 -98525+0 0  9993","line2":"2 69085  88.9863 344.2949 0016954 218.3690 141.6294 14.18380591  1762","mean_motion":14.18380591,"eccentricity":0.0016954,"inclination_deg":88.9863,"raan_deg":344.2949,"arg_perigee_deg":218.369,"mean_anomaly_deg":141.6294,"bstar":-0.98525,"rev_number":176,"period_min":101.52423186958,"perigee_km":818.61262319694,"apogee_km":843.05680448423,"semimajor_km":7208.9717138406,"source":"CELESTRAK","updated_at":"2026-05-25T13:38:09.051657Z"}}